Tracking 18852 objects as of 23-Nov-2017
HD Live streaming from Space Station
objects crossing your sky now

FENGYUN 1C DEB

Track FENGYUN 1C DEB now!
10-day predictions


NORAD ID: 30390
Int'l Code: 1999-025ADD
Perigee: 794.3 km
Apogee: 915.0 km
Inclination: 99.0 °
Period: 101.9 minutes
Semi major axis: 7225 km
RCS: 0.041 m2 (small)
Launch date: May 10, 1999
Source: People's Republic of China (PRC)
Launch site: Taiyaun Space Center, China (TSC)

Note: This is SATELLITE DEBRIS
aabbcc
Your satellite tracking list
Your tracking list is empty




NASA's NSSDC Master Catalog

Two Line Element Set (TLE):
1 30390U 99025ADD 17327.08970637  .00000810  00000-0  44061-3 0  9997
2 30390  99.0376 355.3878 0083525 271.8963 147.5672 14.13466668557249
Source of the keplerian elements: AFSPC